Location: Balaclava NSW 2575, Australia
(34.4510°S, 150.4953°E)
Time: 07:39:23
(UTC+10:00)

ISS - Pass Details

Date: 21 May 2021
Orbit: 417 x 422 km, 51.6° (Epoch: 17 June)

Event Time Altitude Azimuth Distance (km) Brightness Sun altitude
Rises 05:57:13 0° 316° (NW) 2,369 -0.2 -10.7°
Reaches altitude 10° 05:59:18 10° 316° (NW) 1,511 -1.2 -10.3°
Maximum altitude 06:02:42 83° 42° (NE) 435 -3.6 -9.7°
Drops below altitude 10° 06:06:08 10° 131° (SE) 1,527 -0.5 -9.0°
Sets 06:08:15 0° 132° (SE) 2,398 0.5 -8.6°
